Content
SEND FEEDBACK

Daily
Averages
Monthly
Summary
United States of America

FAYETTEVILLE, TENNESSEE


Home > North America > United States > Tennessee
Elevation: 700 feet     Latitude: 35 10N     Longitude: 086 33W

WEATHER
 
SELECT A DAY
Number of Records: 309,541;   Date Range: 4/22/02 - 12/19/14
 
SHARE

PRINT THIS DATA

[ ← Previous Day ]
WEATHER ALMANAC - SEPTEMBER 15, 2013
[ Next Day → ]
[ °C ]   °F
Weather ElementAverageHighLow
Temperature66.3 °F80.6 °F (1:55 pm)53.6 °F (3:15 am)
Dewpoint55.8 °F62.6 °F (6:55 pm)50 °F (6:15 am)
Humidity72.7 %94 % (12:55 am)37 % (1:55 pm)
Barometer30.11 in30.14 in (9:35 am)30.07 in (1:55 am)
Wind Speed2.3 mph9.2 mph (11:55 am)
Weather ElementAverage
Visibility9.6 mi
Wind DirectionENE (55.1 °)

Weather ElementTotal
Precipitation---
Cooling Degree Days2.1 (Base 65)
Growing Degree Days17.1 (Base 50)
Averaged from 71 records on September 15, 2013
WEATHER CONDITIONS BREAKOUT
WIND DIRECTION BREAKOUT
WEATHER BY HOUR - SEPTEMBER 15, 2013
[ °C ]   °F
Local TimeTemperatureDewpointHumidityBarometerVisibilityWind DirectionWind SpeedGust SpeedPrecipitationEventsConditions
12:35 AM57.2 °F53.6 °F88 %30.08 in10.0 miCalmClear
12:55 AM55.4 °F53.6 °F94 %30.08 in10.0 miCalmClear
1:15 AM55.4 °F53.6 °F94 %30.08 in10.0 miCalmClear
1:35 AM55.4 °F53.6 °F94 %30.08 in10.0 miCalmClear
1:55 AM55.4 °F53.6 °F94 %30.07 in10.0 miCalmClear
2:15 AM55.4 °F51.8 °F88 %30.08 in10.0 miCalmClear
2:35 AM55.4 °F51.8 °F88 %30.08 in10.0 miCalmClear
2:55 AM55.4 °F51.8 °F88 %30.08 in10.0 miCalmClear
3:15 AM53.6 °F51.8 °F94 %30.08 in10.0 miCalmClear
3:35 AM53.6 °F51.8 °F94 %30.09 in10.0 miCalmClear
3:55 AM55.4 °F51.8 °F88 %30.09 in10.0 miCalmClear
4:15 AM53.6 °F51.8 °F94 %30.09 in10.0 miCalmClear
4:35 AM53.6 °F51.8 °F94 %30.09 in10.0 miCalmClear
4:55 AM53.6 °F51.8 °F94 %30.09 in10.0 miCalmClear
5:15 AM53.6 °F51.8 °F94 %30.10 in10.0 miCalmClear
5:35 AM53.6 °F51.8 °F94 %30.10 in10.0 miCalmClear
5:55 AM53.6 °F51.8 °F94 %30.10 in10.0 miCalmClear
6:15 AM53.6 °F50.0 °F88 %30.10 in10.0 miCalmClear
6:35 AM53.6 °F50.0 °F88 %30.11 in10.0 miCalmClear
6:55 AM53.6 °F50.0 °F88 %30.12 in7.0 miCalmClear
7:15 AM53.6 °F51.8 °F94 %30.12 in10.0 miCalmClear
7:35 AM55.4 °F53.6 °F94 %30.12 in10.0 miCalmClear
7:55 AM59.0 °F55.4 °F88 %30.12 in10.0 miCalmClear
8:15 AM62.6 °F57.2 °F82 %30.12 in10.0 miCalmClear
8:35 AM66.2 °F57.2 °F73 %30.13 in10.0 miSE (140°)4.6 mphClear
8:55 AM68.0 °F57.2 °F68 %30.13 in10.0 miSSE (150°)6.9 mphClear
9:15 AM69.8 °F59.0 °F68 %30.13 in10.0 miSE (140°)4.6 mphClear
9:35 AM71.6 °F59.0 °F64 %30.14 in10.0 miSE (140°)6.9 mphClear
9:55 AM71.6 °F59.0 °F64 %30.14 in10.0 miSE (140°)6.9 mphClear
10:15 AM73.4 °F59.0 °F61 %30.14 in10.0 miSSE (160°)6.9 mphScattered Clouds
10:35 AM73.4 °F59.0 °F61 %30.14 in10.0 miSouth (170°)8.1 mphScattered Clouds
10:55 AM75.2 °F59.0 °F57 %30.14 in10.0 miSE (140°)5.8 mphScattered Clouds
11:15 AM75.2 °F57.2 °F53 %30.14 in10.0 miSSE (150°)6.9 mphScattered Clouds
11:35 AM77.0 °F55.4 °F47 %30.14 in10.0 miSouth (170°)8.1 mphScattered Clouds
11:55 AM77.0 °F55.4 °F47 %30.13 in10.0 miSSE (150°)9.2 mphScattered Clouds
12:15 PM77.0 °F55.4 °F47 %30.12 in10.0 miSE (140°)9.2 mphScattered Clouds
12:35 PM77.0 °F55.4 °F47 %30.13 in10.0 miESE (120°)8.1 mphScattered Clouds
12:55 PM78.8 °F53.6 °F42 %30.12 in10.0 miSSE (160°)6.9 mphScattered Clouds
1:15 PM78.8 °F53.6 °F42 %30.12 in10.0 miSouth (180°)4.6 mphClear
1:35 PM78.8 °F55.4 °F44 %30.12 in10.0 miSSE (150°)4.6 mphScattered Clouds
1:55 PM80.6 °F51.8 °F37 %30.11 in10.0 miSouth (180°)6.9 mphScattered Clouds
2:15 PM78.8 °F53.6 °F42 %30.11 in10.0 miSSE (150°)4.6 mphClear
2:35 PM80.6 °F51.8 °F37 %30.10 in10.0 miSE (140°)6.9 mphClear
2:55 PM78.8 °F53.6 °F42 %30.10 in10.0 miESE (110°)4.6 mphScattered Clouds
3:15 PM80.6 °F51.8 °F37 %30.10 in10.0 miSouth (190°)6.9 mphScattered Clouds
3:35 PM80.6 °F53.6 °F39 %30.10 in10.0 miSSE (160°)4.6 mphScattered Clouds
3:55 PM78.8 °F55.4 °F44 %30.10 in10.0 miESE (120°)3.5 mphClear
4:15 PM78.8 °F55.4 °F44 %30.10 in10.0 miSE (130°)4.6 mphClear
4:35 PM78.8 °F55.4 °F44 %30.09 in10.0 miEast (90°)4.6 mphClear
4:55 PM78.8 °F57.2 °F47 %30.09 in10.0 miESE (120°)3.5 mphClear
5:15 PM77.0 °F57.2 °F50 %30.10 in10.0 miCalmClear
5:35 PM78.8 °F57.2 °F47 %30.10 in10.0 miCalmClear
5:55 PM77.0 °F59.0 °F54 %30.10 in10.0 miESE (120°)3.5 mphClear
6:15 PM75.2 °F60.8 °F61 %30.10 in10.0 miCalmClear
6:35 PM73.4 °F60.8 °F65 %30.11 in10.0 miCalmClear
6:55 PM69.8 °F62.6 °F78 %30.10 in10.0 miCalmClear
7:15 PM69.8 °F62.6 °F78 %30.10 in10.0 miCalmClear
7:35 PM69.8 °F60.8 °F73 %30.10 in10.0 miCalmClear
7:55 PM68.0 °F60.8 °F78 %30.11 in10.0 miCalmClear
8:15 PM66.2 °F62.6 °F88 %30.11 in10.0 miCalmClear
8:35 PM64.4 °F60.8 °F88 %30.12 in10.0 miCalmClear
8:55 PM64.4 °F60.8 °F88 %30.12 in7.0 miCalmClear
9:15 PM62.6 °F60.8 °F94 %30.12 in7.0 miCalmClear
9:35 PM62.6 °F59.0 °F88 %30.13 in7.0 miCalmClear
9:55 PM60.8 °F59.0 °F94 %30.13 in7.0 miCalmClear
10:15 PM62.6 °F60.8 °F94 %30.12 in10.0 miCalmClear
10:35 PM60.8 °F59.0 °F94 %30.13 in10.0 miCalmClear
10:55 PM60.8 °F57.2 °F88 %30.12 in2.5 miCalmClear
11:15 PM60.8 °F57.2 °F88 %30.12 in7.0 miCalmClear
11:35 PM59.0 °F57.2 °F94 %30.13 in7.0 miCalmClear
11:55 PM60.8 °F59.0 °F94 %30.12 in7.0 miCalmClear
Hourly data recorded from KMDQ, located miles away from Fayetteville, Tennessee







STORIES FROM OUR PARTNERS